Weather History for Capo Carbonara, Italy

Change the Weather History Date:

Wednesday, January 8, 2014

  Actual Average Record
Temperature  
Mean Temperature 59 °F -  
Max Temperature 65 °F - - ()
Min Temperature 53 °F - - ()
Degree Days  
Heating Degree Days 6    
Growing Degree Days 9 (Base 50)    
Moisture  
Dew Point 50 °F    
Average Humidity 76    
Maximum Humidity 88    
Minimum Humidity 52    
Precipitation  
Precipitation 0.00 in - - ()
Sea Level Pressure  
Sea Level Pressure 30.31 in    
Wind  
Wind Speed 5 mph ()    
Max Wind Speed 12 mph    
Max Gust Speed -    
Visibility 7.6 miles    
Events      
T = Trace of Precipitation, MM = Missing Value Source: Averaged Metar Reports

Daily Weather History Graph

Daily Weather History Graph

Search for Another Location

Airport:

Trip Planner

Search our weather history database for the weather conditions in past years. The results will help you decide how hot, cold, wet, or windy it might be!

Date:

Astronomy

Jan. 08, 2014 Rise Set
Actual Time 7:41 AM CET 5:16 PM CET
Civil Twilight 7:11 AM CET 5:45 PM CET
Nautical Twilight 6:38 AM CET 6:19 PM CET
Astronomical Twilight 6:06 AM CET 6:51 PM CET
Moon 11:58 AM CET (1/8) 12:31 AM CET (1/8)
Length of Visible Light 10h 34m
Length of Day
9h 34m
First Quarter, 53% of the Moon is Illuminated
Jan 8
First Quarter
Jan 16
Full
Jan 24
Last Quarter
Jan 30
New
Feb 6
First Quarter

Hourly Weather History & Observations

Time (CET) Temp. Dew Point Humidity Pressure Visibility Wind Dir Wind Speed Gust Speed Precip Events Conditions
1:00 AM 55 °F 49 °F 74% 30.30 in 12 mi East 2.3 mph - -   Partly Cloudy
1:55 AM 55.4 °F 48.2 °F 77% 30.27 in 6.2 mi ENE 2.3 mph - N/A   Partly Cloudy
4:55 AM 53.6 °F 48.2 °F 82% 30.27 in 6.2 mi ENE 3.5 mph - N/A   Partly Cloudy
5:55 AM 53.6 °F 48.2 °F 82% 30.30 in 6.2 mi East 5.8 mph - N/A   Scattered Clouds
6:55 AM 53.6 °F 50.0 °F 88% 30.30 in 6.2 mi ENE 3.5 mph - N/A   Mostly Cloudy
7:00 AM 54 °F 50 °F 82% 30.31 in 12 mi ENE 3.5 mph - -   Mostly Cloudy
7:55 AM 53.6 °F 50.0 °F 88% 30.30 in 6.2 mi East 2.3 mph - N/A   Mostly Cloudy
8:55 AM 55.4 °F 51.8 °F 88% 30.33 in 6.2 mi ENE 3.5 mph - N/A   Mostly Cloudy
9:55 AM 57.2 °F 51.8 °F 82% 30.33 in 6.2 mi ENE 5.8 mph - N/A   Mostly Cloudy
10:00 AM 57 °F 52 °F 76% 30.34 in 12 mi ENE 5.8 mph - -   Mostly Cloudy
10:55 AM 57.2 °F 51.8 °F 82% 30.33 in 6.2 mi ENE 5.8 mph - N/A   Mostly Cloudy
11:55 AM 59.0 °F 53.6 °F 82% 30.33 in 6.2 mi ENE 4.6 mph - N/A   Mostly Cloudy
12:55 PM 60.8 °F 48.2 °F 63% 30.30 in 6.2 mi East 4.6 mph - N/A   Mostly Cloudy
1:00 PM 62 °F 49 °F 52% 30.32 in 12 mi East 4.6 mph - -   Mostly Cloudy
1:55 PM 62.6 °F 50.0 °F 63% 30.30 in 6.2 mi East 4.6 mph - N/A   Partly Cloudy
2:55 PM 62.6 °F 50.0 °F 63% 30.30 in 6.2 mi ENE 6.9 mph - N/A   Partly Cloudy
3:55 PM 60.8 °F 50.0 °F 68% 30.30 in 6.2 mi ENE 8.1 mph - N/A   Scattered Clouds
4:00 PM 61 °F 50 °F 59% 30.30 in 12 mi ENE 8.1 mph - -   Partly Cloudy
4:55 PM 59.0 °F 50.0 °F 72% 30.30 in 6.2 mi ENE 9.2 mph - N/A   Scattered Clouds
5:55 PM 55.4 °F 48.2 °F 77% 30.30 in 6.2 mi NE 9.2 mph - N/A   Scattered Clouds
6:55 PM 55.4 °F 50.0 °F 82% 30.30 in 6.2 mi ENE 9.2 mph - N/A   Mostly Cloudy
7:00 PM 56 °F 50 °F 75% 30.31 in 12 mi ENE 9.2 mph - -   Mostly Cloudy
7:55 PM 55.4 °F 50.0 °F 82% 30.30 in 6.2 mi ENE 10.4 mph - N/A   Scattered Clouds
8:55 PM 55.4 °F 50.0 °F 82% 30.30 in 6.2 mi NE 10.4 mph - N/A   Scattered Clouds
9:55 PM 55.4 °F 50.0 °F 82% 30.30 in 6.2 mi NE 10.4 mph - N/A   Scattered Clouds
10:00 PM 56 °F 50 °F 74% 30.32 in 12 mi NE 10.4 mph - -   Partly Cloudy
10:55 PM 55.4 °F 50.0 °F 82% 30.30 in 6.2 mi ENE 11.5 mph - N/A   Partly Cloudy
11:55 PM 55.4 °F 50.0 °F 82% 30.30 in 6.2 mi ENE 8.1 mph - N/A   Partly Cloudy